KE6LRO Weather Reports


Display with metric or nautical units.
time (UTC)temp
F
wind
direction
speed
MPH
gust
MPH
rain 1hr
in
rain 24hr
in
rain mn
in
humidity
%
barometer
mb
20260505234824 61 321 2.0 8.0 0.00 0.00 0.00 29 1018.3
20260505234322 61 307 2.0 7.0 0.00 0.00 0.00 29 1018.3
20260505233819 61 331 5.0 8.0 0.00 0.00 0.00 29 1018.3
20260505233317 60 331 7.0 14.0 0.00 0.00 0.00 31 1018.5
20260505232814 61 276 4.0 10.0 0.00 0.00 0.00 30 1018.2
20260505232311 59 5 2.0 13.0 0.00 0.00 0.00 30 1018.2
20260505231808 60 345 6.0 7.0 0.00 0.00 0.00 29 1018.3
20260505231306 62 326 5.0 13.0 0.00 0.00 0.00 29 1018.2
20260505230804 62 354 5.0 7.0 0.00 0.00 0.00 30 1018.3
20260505230300 60 285 3.0 5.0 0.00 0.00 0.00 29 1018.3
20260505225757 62 296 9.0 10.0 0.00 0.00 0.00 29 1018.2
20260505225254 61 335 4.0 14.0 0.00 0.00 0.00 29 1018.3
20260505224749 61 298 4.0 6.0 0.00 0.00 0.00 30 1018.2
20260505224247 61 259 2.0 13.0 0.00 0.00 0.00 29 1018.5
20260505223744 61 328 0.0 7.0 0.00 0.00 0.00 30 1018.3
20260505223241 61 342 3.0 6.0 0.00 0.00 0.00 31 1018.5
20260505222737 60 23 2.0 7.0 0.00 0.00 0.00 31 1018.3
20260505222233 60 49 1.0 13.0 0.00 0.00 0.00 31 1018.4
20260505221731 61 301 6.0 13.0 0.00 0.00 0.00 30 1018.4
20260505221227 60 18 8.0 10.0 0.00 0.00 0.00 30 1018.5
20260505220724 60 11 9.0 11.0 0.00 0.00 0.00 31 1018.5
20260505220222 60 33 2.0 7.0 0.00 0.00 0.00 31 1018.5
20260505215719 62 268 2.0 13.0 0.00 0.00 0.00 32 1018.5
20260505215217 60 321 3.0 7.0 0.00 0.00 0.00 32 1018.5
20260505214714 62 3 7.0 15.0 0.00 0.00 0.00 30 1018.5
20260505214212 60 322 1.0 3.0 0.00 0.00 0.00 30 1018.4
20260505213709 61 294 3.0 3.0 0.00 0.00 0.00 29 1018.6
20260505213206 60 323 5.0 14.0 0.00 0.00 0.00 32 1018.7
20260505212702 59 322 3.0 5.0 0.00 0.00 0.00 34 1018.5
20260505212159 60 351 6.0 10.0 0.00 0.00 0.00 32 1018.6
20260505211656 62 312 1.0 3.0 0.00 0.00 0.00 31 1018.5
20260505211154 61 315 1.0 7.0 0.00 0.00 0.00 34 1018.5
20260505210650 61 304 2.0 3.0 0.00 0.00 0.00 32 1018.5
20260505210147 61 344 3.0 7.0 0.00 0.00 0.00 34 1018.7
20260505205644 62 4 5.0 11.0 0.00 0.00 0.00 33 1018.5
20260505205142 63 317 5.0 13.0 0.00 0.00 0.00 32 1018.5
20260505204639 63 317 2.0 3.0 0.00 0.00 0.00 31 1018.5
20260505204137 60 325 3.0 5.0 0.00 0.00 0.00 32 1018.4
20260505203633 61 258 3.0 9.0 0.00 0.00 0.00 32 1018.5
20260505203130 63 303 5.0 9.0 0.00 0.00 0.00 31 1018.6
20260505202626 62 359 5.0 9.0 0.00 0.00 0.00 31 1018.6
20260505202122 60 335 7.0 13.0 0.00 0.00 0.00 32 1018.7
20260505201619 61 52 8.0 10.0 0.00 0.00 0.00 32 1018.7
20260505201117 62 71 3.0 7.0 0.00 0.00 0.00 32 1018.5
20260505200615 62 45 2.0 7.0 0.00 0.00 0.00 30 1018.4
20260505200111 61 337 0.0 5.0 0.00 0.00 0.00 31 1018.4
20260505195607 61 358 2.0 6.0 0.00 0.00 0.00 31 1018.4
20260505195105 63 336 5.0 9.0 0.00 0.00 0.00 30 1018.6
20260505194602 61 290 3.0 3.0 0.00 0.00 0.00 29 1018.5
20260505194058 61 37 3.0 6.0 0.00 0.00 0.00 33 1018.5
20260505193555 61 1 10.0 11.0 0.00 0.00 0.00 30 1018.5
20260505193052 60 326 3.0 6.0 0.00 0.00 0.00 30 1018.5
20260505192551 60 352 5.0 7.0 0.00 0.00 0.00 35 1018.6
20260505192048 61 340 4.0 5.0 0.00 0.00 0.00 30 1018.6
20260505191546 62 8 4.0 9.0 0.00 0.00 0.00 30 1018.6
20260505191043 61 334 2.0 5.0 0.00 0.00 0.00 34 1018.7
20260505190538 59 1 3.0 5.0 0.00 0.00 0.00 32 1018.5
20260505190034 61 323 2.0 9.0 0.00 0.00 0.00 31 1018.6
20260505185531 60 340 6.0 7.0 0.00 0.00 0.00 30 1018.6
20260505185027 61 313 2.0 10.0 0.00 0.00 0.00 31 1018.7
20260505184524 60 319 2.0 6.0 0.00 0.00 0.00 30 1018.6
20260505184021 61 327 5.0 8.0 0.00 0.00 0.00 31 1018.8
20260505183518 60 334 3.0 8.0 0.00 0.00 0.00 31 1018.7
20260505183015 60 298 3.0 8.0 0.00 0.00 0.00 32 1018.7
20260505182506 61 297 5.0 8.0 0.00 0.00 0.00 31 1018.7
20260505182003 61 306 7.0 8.0 0.00 0.00 0.00 28 1018.7
20260505181459 61 347 2.0 7.0 0.00 0.00 0.00 30 1018.8
20260505180956 60 333 3.0 6.0 0.00 0.00 0.00 31 1018.8
20260505180452 60 21 7.0 9.0 0.00 0.00 0.00 30 1018.9
20260505175949 60 345 1.0 2.0 0.00 0.00 0.00 33 1019.1
20260505175446 59 310 3.0 5.0 0.00 0.00 0.00 32 1019.1
20260505174942 60 7 0.0 2.0 0.00 0.00 0.00 33 1019.3
20260505174439 59 330 2.0 5.0 0.00 0.00 0.00 32 1018.8
20260505173936 61 327 1.0 2.0 0.00 0.00 0.00 30 1018.9
20260505173432 58 303 0.0 0.0 0.00 0.00 0.00 34 1019.2
20260505172929 58 306 2.0 6.0 0.00 0.00 0.00 33 1019.4
20260505172427 58 327 0.0 3.0 0.00 0.00 0.00 35 1019.4
20260505171926 58 328 1.0 3.0 0.00 0.00 0.00 34 1019.3
20260505171424 58 335 4.0 6.0 0.00 0.00 0.00 33 1019.2
20260505170920 58 337 2.0 3.0 0.00 0.00 0.00 33 1019.3
20260505170417 57 310 3.0 3.0 0.00 0.00 0.00 34 1019.4
20260505165912 58 336 1.0 3.0 0.00 0.00 0.00 36 1019.5
20260505165409 57 334 0.0 0.0 0.00 0.00 0.00 36 1019.3
20260505164903 57 300 1.0 2.0 0.00 0.00 0.00 34 1019.5
20260505164400 57 310 5.0 6.0 0.00 0.00 0.00 33 1019.6
20260505163859 55 355 0.0 1.0 0.00 0.00 0.00 37 1019.7
20260505163358 55 344 3.0 3.0 0.00 0.00 0.00 35 1019.7
20260505162856 54 32 2.0 3.0 0.00 0.00 0.00 37 1019.6
20260505162351 53 333 3.0 5.0 0.00 0.00 0.00 36 1019.8
20260505161848 55 15 4.0 6.0 0.00 0.00 0.00 36 1019.6
20260505161345 56 349 2.0 3.0 0.00 0.00 0.00 37 1019.9
20260505160842 55 319 3.0 5.0 0.00 0.00 0.00 41 1019.7
20260505160341 54 316 2.0 3.0 0.00 0.00 0.00 41 1020.1
20260505153319 51 4 0.0 1.0 0.00 0.00 0.00 48 1019.8
20260505152816 51 335 0.0 0.0 0.00 0.00 0.00 51 1019.8
20260505152313 50 337 0.0 0.0 0.00 0.00 0.00 59 1019.8
20260505151808 49 336 0.0 1.0 0.00 0.00 0.00 59 1019.9
20260505151305 48 335 0.0 1.0 0.00 0.00 0.00 58 1019.9
20260505150756 47 315 0.0 1.0 0.00 0.00 0.00 59 1020.2
20260505150253 46 335 0.0 0.0 0.00 0.00 0.00 63 1020.1
20260505140223 31 340 0.0 0.0 0.00 0.00 0.00 96 1020.2
20260505130147 29 329 0.0 0.0 0.00 0.00 0.00 97 1019.6
20260505124637 28 301 2.0 2.0 0.00 0.00 0.00 97 1019.4
20260505124133 28 348 0.0 0.0 0.00 0.00 0.00 97 1019.3
20260505123629 28 333 0.0 0.0 0.00 0.00 0.00 97 1019.4
20260505123126 28 336 0.0 0.0 0.00 0.00 0.00 96 1019.6
20260505122623 28 338 0.0 0.0 0.00 0.00 0.00 96 1019.3
20260505122120 29 342 0.0 0.0 0.00 0.00 0.00 96 1019.4
20260505121616 29 348 0.0 0.0 0.00 0.00 0.00 96 1019.3
20260505121113 29 332 0.0 0.0 0.00 0.00 0.00 96 1019.2
20260505120609 29 345 0.0 0.0 0.00 0.00 0.00 96 1019.4
20260505120105 29 337 0.0 0.0 0.00 0.00 0.00 95 1019.2
20260505115600 30 333 0.0 0.0 0.00 0.00 0.00 95 1019.2
20260505115057 30 332 0.0 0.0 0.00 0.00 0.00 95 1019.3
20260505114555 30 336 0.0 0.0 0.00 0.00 0.00 95 1019.3
20260505114051 30 359 0.0 0.0 0.00 0.00 0.00 95 1019.2
20260505113547 30 313 0.0 0.0 0.00 0.00 0.00 95 1019.3
20260505113044 30 354 0.0 0.0 0.00 0.00 0.00 94 1019.1
20260505112540 30 333 0.0 0.0 0.00 0.00 0.00 94 1019.3
20260505112039 31 338 0.0 0.0 0.00 0.00 0.00 94 1019.1
20260505111538 31 327 0.0 1.0 0.00 0.00 0.00 94 1019.3
20260505111034 31 341 0.0 0.0 0.00 0.00 0.00 93 1019.1
20260505110531 31 337 0.0 0.0 0.00 0.00 0.00 93 1019.1
20260505102003 33 354 0.0 0.0 0.00 0.00 0.00 90 1018.7
20260505101501 33 349 0.0 0.0 0.00 0.00 0.00 90 1018.9
20260505100957 33 350 0.0 0.0 0.00 0.00 0.00 90 1019.1
20260505100455 33 352 0.0 0.0 0.00 0.00 0.00 89 1018.9
20260505095951 34 314 0.0 0.0 0.00 0.00 0.00 90 1018.7
20260505095447 34 340 0.0 0.0 0.00 0.00 0.00 89 1018.7
20260505094944 34 340 0.0 0.0 0.00 0.00 0.00 87 1018.6
20260505094441 35 313 1.0 2.0 0.00 0.00 0.00 88 1018.5
20260505093937 35 317 1.0 1.0 0.00 0.00 0.00 87 1018.5
20260505093434 35 333 0.0 0.0 0.00 0.00 0.00 87 1018.4
20260505092931 35 331 0.0 0.0 0.00 0.00 0.00 86 1018.5
20260505092429 36 351 0.0 0.0 0.00 0.00 0.00 85 1018.5
20260505091926 36 315 0.0 1.0 0.00 0.00 0.00 85 1018.3
20260505091423 37 317 0.0 0.0 0.00 0.00 0.00 84 1018.3
20260505090921 37 337 0.0 0.0 0.00 0.00 0.00 84 1018.4
20260505090419 37 336 0.0 0.0 0.00 0.00 0.00 83 1018.3
20260505085916 38 339 0.0 1.0 0.00 0.00 0.00 83 1018.3
20260505085414 38 338 0.0 0.0 0.00 0.00 0.00 81 1018.3
20260505084912 39 355 0.0 0.0 0.00 0.00 0.00 80 1018.4
20260505084410 39 335 0.0 0.0 0.00 0.00 0.00 79 1018.5
20260505083908 39 334 0.0 0.0 0.00 0.00 0.00 79 1018.5
20260505083405 39 328 0.0 2.0 0.00 0.00 0.00 78 1018.3
20260505082901 40 332 0.0 0.0 0.00 0.00 0.00 77 1018.5
20260505082357 41 320 0.0 2.0 0.00 0.00 0.00 75 1018.3
20260505081854 41 329 0.0 0.0 0.00 0.00 0.00 75 1018.4
20260505081350 41 291 1.0 2.0 0.00 0.00 0.00 72 1018.4
20260505080847 41 352 0.0 1.0 0.00 0.00 0.00 73 1018.2
20260505080343 42 297 2.0 3.0 0.00 0.00 0.00 72 1018.4
20260505075839 41 352 0.0 2.0 0.00 0.00 0.00 74 1018.5
20260505075336 42 350 0.0 0.0 0.00 0.00 0.00 73 1018.4
20260505074833 41 19 1.0 2.0 0.00 0.00 0.00 74 1018.5
20260505074330 42 280 3.0 3.0 0.00 0.00 0.00 75 1018.5
20260505073828 42 348 0.0 1.0 0.00 0.00 0.00 72 1018.5
20260505073326 43 326 1.0 3.0 0.00 0.00 0.00 73 1018.3
20260505072822 44 284 1.0 3.0 0.00 0.00 0.00 69 1018.3
20260505072319 45 286 2.0 3.0 0.00 0.00 0.00 66 1018.3
20260505071814 46 185 3.0 5.0 0.00 0.00 0.00 62 1018.1
20260505071311 46 274 6.0 9.0 0.00 0.00 0.00 60 1018.1
20260505070809 43 308 2.0 2.0 0.00 0.00 0.00 68 1018.2
20260505070305 43 359 0.0 2.0 0.00 0.00 0.00 73 1018.2
20260505065800 43 351 0.0 0.0 0.00 0.00 0.00 73 1018.2
20260505065258 44 318 1.0 3.0 0.00 0.00 0.00 69 1018.4
20260505064755 44 352 2.0 5.0 0.00 0.00 0.00 67 1018.2
20260505064252 45 4 2.0 3.0 0.00 0.00 0.00 69 1018.3
20260505063750 46 334 1.0 2.0 0.00 0.00 0.00 65 1018.1
20260505063246 48 354 3.0 5.0 0.00 0.00 0.00 62 1018.2
20260505062742 48 249 1.0 3.0 0.00 0.00 0.00 56 1017.9
20260505062240 48 358 1.0 2.0 0.00 0.00 0.00 60 1017.7
20260505061737 47 8 1.0 2.0 0.00 0.00 0.00 57 1017.8
20260505061235 47 21 0.0 0.0 0.00 0.00 0.00 61 1017.8
20260505060732 48 341 1.0 2.0 0.00 0.00 0.00 59 1017.8
20260505060229 48 321 0.0 2.0 0.00 0.00 0.00 61 1017.9
20260505055724 49 307 1.0 2.0 0.00 0.00 0.00 56 1017.5
20260505055221 49 18 1.0 1.0 0.00 0.00 0.00 61 1017.7
20260505054718 48 41 2.0 3.0 0.00 0.00 0.00 58 1017.6
20260505054216 48 356 0.0 1.0 0.00 0.00 0.00 60 1017.5
20260505053714 48 156 5.0 6.0 0.00 0.00 0.00 60 1017.3
20260505053210 50 325 1.0 5.0 0.00 0.00 0.00 56 1017.5
20260505052707 49 215 3.0 5.0 0.00 0.00 0.00 57 1017.4
20260505052204 50 288 2.0 3.0 0.00 0.00 0.00 56 1017.2
20260505051701 52 243 3.0 7.0 0.00 0.00 0.00 52 1017.3
20260505051159 52 81 5.0 7.0 0.00 0.00 0.00 52 1017.3
20260505050657 52 319 1.0 1.0 0.00 0.00 0.00 53 1017.2
20260505050156 53 294 2.0 5.0 0.00 0.00 0.00 51 1017.2
20260505041631 54 246 7.0 8.0 0.00 0.00 0.00 48 1016.9
20260505041128 55 297 3.0 9.0 0.00 0.00 0.00 48 1016.9
20260505040625 54 172 3.0 11.0 0.00 0.00 0.00 46 1017.1
20260505040122 54 215 3.0 6.0 0.00 0.00 0.00 49 1016.7
20260505035618 53 292 2.0 3.0 0.00 0.00 0.00 50 1016.8
20260505035115 55 321 1.0 2.0 0.00 0.00 0.00 48 1016.5
20260505034612 56 281 3.0 7.0 0.00 0.00 0.00 47 1016.6
20260505034108 55 336 0.0 6.0 0.00 0.00 0.00 49 1016.5
20260505033605 55 327 2.0 2.0 0.00 0.00 0.00 48 1016.4
20260505033104 56 298 1.0 2.0 0.00 0.00 0.00 45 1016.5
20260505032601 56 336 2.0 2.0 0.00 0.00 0.00 44 1016.3
20260505032057 56 353 1.0 2.0 0.00 0.00 0.00 45 1016.4
20260505031555 57 261 2.0 8.0 0.00 0.00 0.00 45 1016.1
20260505031051 57 52 1.0 5.0 0.00 0.00 0.00 44 1016.2
20260505030548 57 330 0.0 6.0 0.00 0.00 0.00 45 1016.2
20260505030044 58 333 4.0 5.0 0.00 0.00 0.00 44 1016.1
20260505025540 58 298 2.0 6.0 0.00 0.00 0.00 42 1016.1
20260505025039 58 314 1.0 3.0 0.00 0.00 0.00 43 1015.8
20260505024535 59 309 2.0 3.0 0.00 0.00 0.00 44 1016.1
20260505024032 59 327 0.0 3.0 0.00 0.00 0.00 41 1015.9
20260505023529 59 338 3.0 5.0 0.00 0.00 0.00 41 1015.7
20260505023027 60 332 0.0 2.0 0.00 0.00 0.00 42 1015.6
20260505022525 60 356 3.0 6.0 0.00 0.00 0.00 41 1015.5
20260505022022 60 330 3.0 5.0 0.00 0.00 0.00 42 1015.4
20260505021518 60 350 1.0 5.0 0.00 0.00 0.00 43 1015.5
20260505021015 60 314 1.0 3.0 0.00 0.00 0.00 42 1015.4
20260505020514 60 276 3.0 6.0 0.00 0.00 0.00 43 1015.4
20260505020012 61 327 1.0 3.0 0.00 0.00 0.00 43 1015.2
20260505015509 61 0 1.0 3.0 0.00 0.00 0.00 40 1015.2
20260505015006 61 301 1.0 2.0 0.00 0.00 0.00 42 1015.1
20260505014503 62 337 0.0 5.0 0.00 0.00 0.00 43 1014.8
20260505014000 63 137 2.0 5.0 0.00 0.00 0.00 40 1015.1
20260505013457 64 310 3.0 3.0 0.00 0.00 0.00 39 1014.9
20260505012954 63 332 0.0 6.0 0.00 0.00 0.00 40 1014.8
20260505012452 63 325 2.0 3.0 0.00 0.00 0.00 40 1014.9
20260505011949 64 281 3.0 9.0 0.00 0.00 0.00 39 1014.9
20260505011445 63 309 1.0 2.0 0.00 0.00 0.00 39 1014.9
20260505010942 63 219 6.0 9.0 0.00 0.00 0.00 39 1014.7
20260505010437 64 359 2.0 5.0 0.00 0.00 0.00 39 1014.8
20260505005934 64 351 3.0 7.0 0.00 0.00 0.00 39 1014.8
20260505005431 64 259 3.0 3.0 0.00 0.00 0.00 40 1014.7
20260505004928 64 330 0.0 1.0 0.00 0.00 0.00 39 1014.7
20260505004425 65 315 2.0 5.0 0.00 0.00 0.00 41 1014.7
20260505003921 63 288 2.0 6.0 0.00 0.00 0.00 41 1014.7
20260505003419 64 359 1.0 1.0 0.00 0.00 0.00 40 1014.7
20260505002915 64 334 1.0 2.0 0.00 0.00 0.00 38 1014.8
20260505002411 65 215 4.0 6.0 0.00 0.00 0.00 39 1014.7
20260505001910 65 212 4.0 6.0 0.00 0.00 0.00 38 1014.7
20260505001407 66 276 4.0 6.0 0.00 0.00 0.00 39 1014.6
20260505000904 66 165 4.0 5.0 0.00 0.00 0.00 36 1014.8
20260505000402 65 321 0.0 3.0 0.00 0.00 0.00 37 1014.6
20260504235858 65 42 3.0 7.0 0.00 0.00 0.00 39 1014.6
20260504235355 66 68 1.0 3.0 0.00 0.00 0.00 39 1014.4